C/2019 K1 ( ATLAS )

Japanese version
Home page
Updated on August 15, 2020

---------------------------------------------------------------------

* Profile

Discovery Date May 16, 2019
Magnitude 17.1 mag
Discoverer Asteroid Terrestrial-Impact Last Alert System (ATLAS) search program

* Pictures

* Orbital Elements

Epoch 2020 Feb. 1.0 TT = JDT 2458880.5
T 2020 Feb. 12.96318 TT                                 Rudenko
q   2.0125860            (2000.0)            P               Q
z  +0.0001166      Peri.  265.70676     +0.02610957     +0.28887303
 +/-0.0000019      Node    73.37492     +0.31733720     +0.90542577
e   0.9997653      Incl.   87.14888     -0.94795326     +0.31105714
From 208 observations 2019 May 16-2020 Mar. 14, mean residual 0".7.

* Finding Charts

* Magnitudes Graph

        m1 = 10.0 + 5 log d + 10.0 log r(t + 140)

---------------------------------------------------------------------

The orbital elements are published on M.P.E.C. 2020-F67.
The charts are made with StellaNavigator Ver.10 (AstroArts).
The magnitudes graphs are made with Comet for Windows.

---------------------------------------------------------------------

Copyright(C) Seiichi Yoshida (comet@aerith.net). All rights reserved.